Location: Cuiry
(49.3858°N, 3.7708°E)
Time: 23:09:02
(UTC+00:00)

AQUARIUS - Pass Details

Date: 12 January 2026
Orbit: 633 x 636 km, 98.0° (Epoch: 9 February)

Event Time Altitude Azimuth Distance (km) Brightness Sun altitude
Rises 16:52:02 0° 147° (SSE) 2,925 7.4 -6.8°
Reaches altitude 10° 16:54:17 10° 141° (SE) 2,021 6.6 -7.2°
Maximum altitude 16:58:29 45° 69° (ENE) 872 4.4 -7.8°
Drops below altitude 10° 17:02:42 10° 357° (N) 2,035 6.5 -8.4°
Sets 17:04:58 0° 352° (N) 2,948 7.4 -8.8°
